Time,TemperatureF,DewpointF,PressureIn,WindDirection,WindDirectionDegrees,WindSpeedMPH,WindSpeedGustMPH,Humidity,HourlyPrecipIn,Conditions,Clouds,dailyrainin,SoftwareType,DateUTC
2013-08-01 00:23:00,69.0,66.0,-100.00,SSE,147,3.0,-999.0,90,-99.99,,,-99.99,,2013-08-01 05:23:00,
2013-08-01 01:22:00,69.0,67.0,-100.00,West,280,1.0,-999.0,91,-99.99,,,-99.99,,2013-08-01 06:22:00,
2013-08-01 01:52:00,70.0,67.0,-100.00,South,180,1.0,-999.0,91,-99.99,,,-99.99,,2013-08-01 06:52:00,
2013-08-01 02:23:00,70.0,67.0,-100.00,SE,143,1.0,-999.0,91,-99.99,,,-99.99,,2013-08-01 07:23:00,
2013-08-01 03:15:00,70.0,68.0,-100.00,West,266,1.0,-999.0,91,-99.99,,,-99.99,,2013-08-01 08:15:00,
2013-08-01 03:45:00,71.0,68.0,-100.00,WNW,295,3.0,-999.0,91,-99.99,,,-99.99,,2013-08-01 08:45:00,
2013-08-01 04:20:00,71.0,68.0,-100.00,NW,309,2.0,-999.0,90,-99.99,,,-99.99,,2013-08-01 09:20:00,
2013-08-01 06:19:00,70.0,67.0,-100.00,NNW,332,4.0,-999.0,90,-99.99,,,-99.99,,2013-08-01 11:19:00,
2013-08-01 07:46:00,70.0,66.0,-100.00,North,351,3.0,-999.0,88,-99.99,,,-99.99,,2013-08-01 12:46:00,
2013-08-01 08:19:00,70.0,66.0,-100.00,North,5,2.0,-999.0,87,-99.99,,,-99.99,,2013-08-01 13:19:00,
2013-08-01 08:41:00,70.0,66.0,-100.00,North,351,3.0,-999.0,85,-99.99,,,-99.99,,2013-08-01 13:41:00,
2013-08-01 08:49:00,70.0,66.0,-100.00,North,10,1.0,-999.0,84,-99.99,,,-99.99,,2013-08-01 13:49:00,
2013-08-01 10:20:00,75.0,64.0,-100.00,NNW,330,7.0,-999.0,67,-99.99,,,-99.99,,2013-08-01 15:20:00,
2013-08-01 11:53:00,79.0,65.0,-100.00,NNW,340,7.0,-999.0,62,-99.99,,,-99.99,,2013-08-01 16:53:00,
2013-08-01 13:18:00,79.0,64.0,-100.00,NNW,348,4.0,-999.0,60,-99.99,,,-99.99,,2013-08-01 18:18:00,
2013-08-01 13:32:00,79.0,65.0,-100.00,North,353,4.0,-999.0,61,-99.99,,,-99.99,,2013-08-01 18:32:00,
2013-08-01 13:40:00,81.0,64.0,-100.00,NNW,331,7.0,-999.0,56,-99.99,,,-99.99,,2013-08-01 18:40:00,
2013-08-01 15:18:00,83.0,61.0,-100.00,NNW,339,4.0,-999.0,47,-99.99,,,-99.99,,2013-08-01 20:18:00,
2013-08-01 15:27:00,82.0,61.0,-100.00,NNW,342,5.0,-999.0,48,-99.99,,,-99.99,,2013-08-01 20:27:00,
2013-08-01 15:37:00,83.0,61.0,-100.00,NNW,327,4.0,-999.0,48,-99.99,,,-99.99,,2013-08-01 20:37:00,
2013-08-01 18:25:00,82.0,57.0,-100.00,North,349,5.0,-999.0,42,-99.99,,,-99.99,,2013-08-01 23:25:00,
2013-08-01 18:33:00,83.0,57.0,-100.00,NNW,327,4.0,-999.0,41,-99.99,,,-99.99,,2013-08-01 23:33:00,
2013-08-01 20:03:00,79.0,57.0,-100.00,NNW,327,3.0,-999.0,47,-99.99,,,-99.99,,2013-08-02 01:03:00,
2013-08-01 20:16:00,78.0,57.0,-100.00,NNW,333,3.0,-999.0,48,-99.99,,,-99.99,,2013-08-02 01:16:00,
2013-08-01 20:37:00,77.0,58.0,-100.00,NNW,330,2.0,-999.0,50,-99.99,,,-99.99,,2013-08-02 01:37:00,
2013-08-01 20:51:00,77.0,-99.9,-100.00,NNW,331,2.0,-999.0,51,-99.99,,,-99.99,,2013-08-02 01:51:00,
2013-08-01 22:08:00,72.0,60.0,-100.00,SSE,159,2.0,-999.0,66,-99.99,,,-99.99,,2013-08-02 03:08:00,
2013-08-01 23:12:00,69.0,61.0,-100.00,South,169,1.0,-999.0,73,-99.99,,,-99.99,,2013-08-02 04:12:00,
2013-08-01 23:22:00,69.0,61.0,-100.00,SSE,152,2.0,-999.0,74,-99.99,,,-99.99,,2013-08-02 04:22:00,